Time,TemperatureF,DewpointF,PressureIn,WindDirection,WindDirectionDegrees,WindSpeedMPH,WindSpeedGustMPH,Humidity,HourlyPrecipIn,Conditions,Clouds,dailyrainin,SoftwareType,DateUTC
2013-03-19 00:00:00,26.6,0.0,31.61,South,180,2.0,10.0,31,0.00,,,0.00,meteohub,2013-03-19 06:00:00,
2013-03-19 00:06:00,26.6,0.0,31.61,South,180,2.0,9.0,31,0.00,,,0.00,meteohub,2013-03-19 06:06:00,
2013-03-19 00:11:00,26.2,2.8,31.61,North,0,4.0,8.0,36,0.00,,,0.00,meteohub,2013-03-19 06:11:00,
2013-03-19 00:17:00,25.9,3.7,31.62,South,180,4.0,4.0,38,0.00,,,0.00,meteohub,2013-03-19 06:17:00,
2013-03-19 00:22:00,25.7,4.6,31.62,West,270,4.0,7.0,40,0.00,,,0.00,meteohub,2013-03-19 06:22:00,
2013-03-19 00:28:00,25.7,4.6,31.62,West,270,2.0,7.0,40,0.00,,,0.00,meteohub,2013-03-19 06:28:00,
2013-03-19 00:34:00,25.5,5.0,31.62,NW,315,7.0,8.0,41,0.00,,,0.00,meteohub,2013-03-19 06:34:00,
2013-03-19 00:39:00,25.5,3.9,31.62,North,0,5.0,8.0,39,0.00,,,0.00,meteohub,2013-03-19 06:39:00,
2013-03-19 00:44:00,25.7,4.6,31.62,NNW,338,3.0,8.0,40,0.00,,,0.00,meteohub,2013-03-19 06:44:00,
2013-03-19 00:50:00,25.5,3.9,31.62,NW,315,3.0,8.0,39,0.00,,,0.00,meteohub,2013-03-19 06:50:00,
2013-03-19 00:55:00,25.3,3.2,31.61,West,270,4.0,8.0,38,0.00,,,0.00,meteohub,2013-03-19 06:55:00,
2013-03-19 01:01:00,25.3,2.7,31.61,NW,315,4.0,8.0,37,0.00,,,0.00,meteohub,2013-03-19 07:01:00,
2013-03-19 01:06:00,25.2,3.2,31.61,NW,315,3.0,6.0,38,0.00,,,0.00,meteohub,2013-03-19 07:06:00,
2013-03-19 01:11:00,25.0,3.6,31.62,WNW,293,3.0,4.0,39,0.00,,,0.00,meteohub,2013-03-19 07:11:00,
2013-03-19 01:17:00,24.8,2.8,31.62,NW,315,9.0,9.0,38,0.00,,,0.00,meteohub,2013-03-19 07:17:00,
2013-03-19 01:22:00,25.0,1.8,31.62,West,270,6.0,10.0,36,0.00,,,0.00,meteohub,2013-03-19 07:22:00,
2013-03-19 01:27:00,25.0,1.8,31.62,West,270,7.0,10.0,36,0.00,,,0.00,meteohub,2013-03-19 07:27:00,
2013-03-19 01:32:00,25.0,1.8,31.62,SW,225,1.0,10.0,36,0.00,,,0.00,meteohub,2013-03-19 07:32:00,
2013-03-19 01:37:00,24.8,2.3,31.62,West,270,2.0,8.0,37,0.00,,,0.00,meteohub,2013-03-19 07:37:00,
2013-03-19 01:42:00,24.6,3.2,31.62,NW,315,2.0,8.0,39,0.00,,,0.00,meteohub,2013-03-19 07:42:00,
2013-03-19 01:47:00,24.4,3.6,31.62,NW,315,1.0,4.0,40,0.00,,,0.00,meteohub,2013-03-19 07:47:00,
2013-03-19 01:52:00,24.3,3.4,31.62,West,270,4.0,6.0,40,0.00,,,0.00,meteohub,2013-03-19 07:52:00,
2013-03-19 01:57:00,24.3,3.9,31.62,NW,315,3.0,6.0,41,0.00,,,0.00,meteohub,2013-03-19 07:57:00,
2013-03-19 02:02:00,24.4,3.0,31.62,SW,225,4.0,9.0,39,0.00,,,0.00,meteohub,2013-03-19 08:02:00,
2013-03-19 02:07:00,24.4,3.0,31.62,SW,225,4.0,9.0,39,0.00,,,0.00,meteohub,2013-03-19 08:07:00,
2013-03-19 02:12:00,25.2,2.5,31.63,West,270,4.0,9.0,37,0.00,,,0.00,meteohub,2013-03-19 08:12:00,
2013-03-19 02:17:00,25.2,1.9,31.63,NW,315,4.0,5.0,36,0.00,,,0.00,meteohub,2013-03-19 08:17:00,
2013-03-19 02:22:00,25.2,2.5,31.63,NW,315,2.0,6.0,37,0.00,,,0.00,meteohub,2013-03-19 08:22:00,
2013-03-19 02:27:00,25.2,2.5,31.63,NW,315,4.0,7.0,37,0.00,,,0.00,meteohub,2013-03-19 08:27:00,
2013-03-19 02:32:00,25.2,3.2,31.63,NW,315,3.0,7.0,38,0.00,,,0.00,meteohub,2013-03-19 08:32:00,
2013-03-19 02:37:00,25.0,3.6,31.63,NW,315,5.0,5.0,39,0.00,,,0.00,meteohub,2013-03-19 08:37:00,
2013-03-19 02:43:00,25.2,3.7,31.62,NW,315,5.0,6.0,39,0.00,,,0.00,meteohub,2013-03-19 08:43:00,
2013-03-19 02:48:00,25.2,4.3,31.63,NW,315,4.0,6.0,40,0.00,,,0.00,meteohub,2013-03-19 08:48:00,
2013-03-19 02:54:00,25.2,4.3,31.63,NW,315,6.0,8.0,40,0.00,,,0.00,meteohub,2013-03-19 08:54:00,
2013-03-19 02:59:00,25.2,4.3,31.63,West,270,5.0,8.0,40,0.00,,,0.00,meteohub,2013-03-19 08:59:00,
2013-03-19 03:05:00,25.2,5.4,31.63,NW,315,5.0,6.0,42,0.00,,,0.00,meteohub,2013-03-19 09:05:00,
2013-03-19 03:10:00,25.2,5.4,31.63,West,270,4.0,11.0,42,0.00,,,0.00,meteohub,2013-03-19 09:10:00,
2013-03-19 03:16:00,25.0,5.2,31.63,West,270,6.0,12.0,42,0.00,,,0.00,meteohub,2013-03-19 09:16:00,
2013-03-19 03:21:00,25.0,5.2,31.63,North,0,8.0,12.0,42,0.00,,,0.00,meteohub,2013-03-19 09:21:00,
2013-03-19 03:27:00,24.8,5.5,31.63,SW,225,4.0,9.0,43,0.00,,,0.00,meteohub,2013-03-19 09:27:00,
2013-03-19 03:32:00,24.6,6.3,31.62,NW,315,9.0,9.0,45,0.00,,,0.00,meteohub,2013-03-19 09:32:00,
2013-03-19 03:37:00,24.4,6.6,31.62,NW,315,8.0,9.0,46,0.00,,,0.00,meteohub,2013-03-19 09:37:00,
2013-03-19 03:42:00,24.3,7.3,31.63,NW,315,5.0,9.0,48,0.00,,,0.00,meteohub,2013-03-19 09:42:00,
2013-03-19 03:47:00,23.7,8.2,31.63,NW,315,7.0,9.0,51,0.00,,,0.00,meteohub,2013-03-19 09:47:00,
2013-03-19 03:52:00,23.4,8.8,31.63,West,270,5.0,11.0,53,0.00,,,0.00,meteohub,2013-03-19 09:52:00,
2013-03-19 03:57:00,23.2,9.3,31.63,West,270,6.0,11.0,55,0.00,,,0.00,meteohub,2013-03-19 09:57:00,
2013-03-19 04:03:00,23.0,10.0,31.63,WNW,293,4.0,10.0,57,0.00,,,0.00,meteohub,2013-03-19 10:03:00,
2013-03-19 04:08:00,22.3,11.3,31.63,NW,315,4.0,8.0,62,0.00,,,0.00,meteohub,2013-03-19 10:08:00,
2013-03-19 04:14:00,21.7,11.8,31.63,NW,315,3.0,8.0,65,0.00,,,0.00,meteohub,2013-03-19 10:14:00,
2013-03-19 04:19:00,21.4,12.2,31.63,SW,225,4.0,7.0,67,0.00,,,0.00,meteohub,2013-03-19 10:19:00,
2013-03-19 04:25:00,21.2,12.4,31.63,WNW,293,7.0,8.0,68,0.00,,,0.00,meteohub,2013-03-19 10:25:00,
2013-03-19 04:30:00,21.0,12.4,31.63,NW,315,4.0,8.0,69,0.00,,,0.00,meteohub,2013-03-19 10:30:00,
2013-03-19 04:35:00,21.0,12.4,31.62,NW,315,3.0,7.0,69,0.00,,,0.00,meteohub,2013-03-19 10:35:00,
2013-03-19 04:41:00,21.2,12.0,31.62,West,270,2.0,6.0,67,0.00,,,0.00,meteohub,2013-03-19 10:41:00,
2013-03-19 04:47:00,21.2,12.0,31.62,North,0,4.0,5.0,67,0.00,,,0.00,meteohub,2013-03-19 10:47:00,
2013-03-19 04:52:00,21.2,12.0,31.62,West,270,5.0,11.0,67,0.00,,,0.00,meteohub,2013-03-19 10:52:00,
2013-03-19 04:57:00,21.4,11.8,31.62,NW,315,4.0,11.0,66,0.00,,,0.00,meteohub,2013-03-19 10:57:00,
2013-03-19 05:02:00,21.4,11.8,31.62,West,270,4.0,11.0,66,0.00,,,0.00,meteohub,2013-03-19 11:02:00,
2013-03-19 05:07:00,21.4,11.1,31.62,West,270,9.0,9.0,64,0.00,,,0.00,meteohub,2013-03-19 11:07:00,
2013-03-19 05:12:00,21.9,9.9,31.62,SW,225,8.0,9.0,59,0.00,,,0.00,meteohub,2013-03-19 11:12:00,
2013-03-19 05:17:00,22.6,9.0,31.62,NE,45,6.0,13.0,55,0.00,,,0.00,meteohub,2013-03-19 11:17:00,
2013-03-19 05:23:00,23.0,7.2,31.62,West,270,15.0,15.0,50,0.00,,,0.00,meteohub,2013-03-19 11:23:00,
2013-03-19 05:29:00,23.2,6.4,31.62,SW,225,4.0,15.0,48,0.00,,,0.00,meteohub,2013-03-19 11:29:00,
2013-03-19 05:34:00,23.4,5.5,31.61,SW,225,13.0,15.0,46,0.00,,,0.00,meteohub,2013-03-19 11:34:00,
2013-03-19 05:40:00,23.9,4.6,31.61,SW,225,8.0,17.0,43,0.00,,,0.00,meteohub,2013-03-19 11:40:00,
2013-03-19 05:46:00,23.9,4.6,31.62,NW,315,8.0,17.0,43,0.00,,,0.00,meteohub,2013-03-19 11:46:00,
2013-03-19 05:51:00,23.9,3.6,31.62,SW,225,8.0,17.0,41,0.00,,,0.00,meteohub,2013-03-19 11:51:00,
2013-03-19 05:57:00,24.1,2.7,31.62,SW,225,4.0,13.0,39,0.00,,,0.00,meteohub,2013-03-19 11:57:00,
2013-03-19 06:02:00,24.1,2.7,31.62,NW,315,15.0,15.0,39,0.00,,,0.00,meteohub,2013-03-19 12:02:00,
2013-03-19 06:07:00,24.1,2.7,31.62,NW,315,15.0,15.0,39,0.00,,,0.00,meteohub,2013-03-19 12:07:00,
2013-03-19 06:12:00,24.3,-0.8,31.62,NNW,338,6.0,15.0,33,0.00,,,0.00,meteohub,2013-03-19 12:12:00,
2013-03-19 06:17:00,24.4,-1.1,31.63,West,270,10.0,15.0,32,0.00,,,0.00,meteohub,2013-03-19 12:17:00,
2013-03-19 06:22:00,24.3,-2.0,31.63,West,270,6.0,15.0,31,0.00,,,0.00,meteohub,2013-03-19 12:22:00,
2013-03-19 06:27:00,24.1,-2.2,31.64,SSW,203,3.0,14.0,31,0.00,,,0.00,meteohub,2013-03-19 12:27:00,
2013-03-19 06:32:00,24.1,-2.2,31.65,East,90,6.0,14.0,31,0.00,,,0.00,meteohub,2013-03-19 12:32:00,
2013-03-19 06:38:00,23.9,-3.1,31.65,NE,45,4.0,14.0,30,0.00,,,0.00,meteohub,2013-03-19 12:38:00,
2013-03-19 06:43:00,23.7,-2.6,31.66,South,180,8.0,10.0,31,0.00,,,0.00,meteohub,2013-03-19 12:43:00,
2013-03-19 06:49:00,23.2,-1.7,31.66,NW,315,4.0,10.0,33,0.00,,,0.00,meteohub,2013-03-19 12:49:00,
2013-03-19 06:54:00,22.8,0.5,31.66,SW,225,1.0,11.0,37,0.00,,,0.00,meteohub,2013-03-19 12:54:00,
2013-03-19 07:00:00,22.1,1.4,31.67,SE,135,2.0,11.0,40,0.00,,,0.00,meteohub,2013-03-19 13:00:00,
2013-03-19 07:06:00,21.6,3.0,31.67,NE,45,4.0,5.0,44,0.00,,,0.00,meteohub,2013-03-19 13:06:00,
2013-03-19 07:11:00,21.4,3.4,31.67,NE,45,3.0,8.0,45,0.00,,,0.00,meteohub,2013-03-19 13:11:00,
2013-03-19 07:16:00,21.2,3.6,31.67,ENE,68,4.0,8.0,46,0.00,,,0.00,meteohub,2013-03-19 13:16:00,
2013-03-19 07:22:00,21.2,3.6,31.68,NE,45,5.0,9.0,46,0.00,,,0.00,meteohub,2013-03-19 13:22:00,
2013-03-19 07:27:00,21.2,4.1,31.68,East,90,4.0,9.0,47,0.00,,,0.00,meteohub,2013-03-19 13:27:00,
2013-03-19 07:32:00,21.2,4.1,31.68,ESE,113,3.0,7.0,47,0.00,,,0.00,meteohub,2013-03-19 13:32:00,
2013-03-19 07:37:00,21.2,4.1,31.68,North,0,6.0,7.0,47,0.00,,,0.00,meteohub,2013-03-19 13:37:00,
2013-03-19 07:42:00,21.4,4.8,31.68,East,90,3.0,7.0,48,0.00,,,0.00,meteohub,2013-03-19 13:42:00,
2013-03-19 07:47:00,21.6,4.8,31.69,South,180,4.0,7.0,48,0.00,,,0.00,meteohub,2013-03-19 13:47:00,
2013-03-19 07:52:00,21.6,4.8,31.69,NE,45,4.0,6.0,48,0.00,,,0.00,meteohub,2013-03-19 13:52:00,
2013-03-19 07:57:00,21.9,4.8,31.70,North,0,5.0,6.0,47,0.00,,,0.00,meteohub,2013-03-19 13:57:00,
2013-03-19 08:02:00,22.3,5.2,31.70,East,90,4.0,6.0,47,0.00,,,0.00,meteohub,2013-03-19 14:02:00,
2013-03-19 08:08:00,23.4,5.2,31.70,SE,135,4.0,6.0,45,0.00,,,0.00,meteohub,2013-03-19 14:08:00,
2013-03-19 08:14:00,24.1,5.7,31.70,NW,315,3.0,7.0,45,0.00,,,0.00,meteohub,2013-03-19 14:14:00,
2013-03-19 08:20:00,24.4,5.7,31.70,East,90,2.0,7.0,44,0.00,,,0.00,meteohub,2013-03-19 14:20:00,
2013-03-19 08:25:00,25.0,5.7,31.70,WSW,248,2.0,8.0,43,0.00,,,0.00,meteohub,2013-03-19 14:25:00,
2013-03-19 08:31:00,25.2,5.7,31.70,SE,135,4.0,8.0,43,0.00,,,0.00,meteohub,2013-03-19 14:31:00,
2013-03-19 08:36:00,25.5,5.5,31.70,North,0,6.0,7.0,42,0.00,,,0.00,meteohub,2013-03-19 14:36:00,
2013-03-19 08:42:00,25.9,5.9,31.70,West,270,4.0,9.0,42,0.00,,,0.00,meteohub,2013-03-19 14:42:00,
2013-03-19 08:47:00,26.1,6.1,31.71,ESE,113,7.0,9.0,42,0.00,,,0.00,meteohub,2013-03-19 14:47:00,
2013-03-19 08:52:00,26.2,6.3,31.71,NW,315,9.0,9.0,42,0.00,,,0.00,meteohub,2013-03-19 14:52:00,
2013-03-19 08:57:00,26.6,6.1,31.71,North,0,3.0,11.0,41,0.00,,,0.00,meteohub,2013-03-19 14:57:00,
2013-03-19 09:02:00,27.5,6.3,31.71,SE,135,6.0,11.0,40,0.00,,,0.00,meteohub,2013-03-19 15:02:00,
2013-03-19 09:07:00,27.7,4.3,31.71,North,0,8.0,11.0,36,0.00,,,0.00,meteohub,2013-03-19 15:07:00,
2013-03-19 09:13:00,28.4,7.2,31.71,East,90,8.0,15.0,40,0.00,,,0.00,meteohub,2013-03-19 15:13:00,
2013-03-19 09:18:00,28.9,7.7,31.71,NE,45,7.0,15.0,40,0.00,,,0.00,meteohub,2013-03-19 15:18:00,
2013-03-19 09:24:00,29.1,6.6,31.71,NE,45,7.0,15.0,38,0.00,,,0.00,meteohub,2013-03-19 15:24:00,
2013-03-19 09:29:00,29.3,6.8,31.71,North,0,6.0,11.0,38,0.00,,,0.00,meteohub,2013-03-19 15:29:00,
2013-03-19 09:35:00,30.0,7.5,31.71,North,0,8.0,11.0,38,0.00,,,0.00,meteohub,2013-03-19 15:35:00,
2013-03-19 09:40:00,30.7,7.0,31.72,East,90,4.0,8.0,36,0.00,,,0.00,meteohub,2013-03-19 15:40:00,
2013-03-19 09:46:00,31.1,6.6,31.71,NNE,23,8.0,11.0,35,0.00,,,0.00,meteohub,2013-03-19 15:46:00,
2013-03-19 09:51:00,31.8,7.3,31.72,North,0,7.0,11.0,35,0.00,,,0.00,meteohub,2013-03-19 15:51:00,
2013-03-19 09:57:00,31.8,6.6,31.71,SW,225,5.0,11.0,34,0.00,,,0.00,meteohub,2013-03-19 15:57:00,
2013-03-19 10:02:00,32.2,6.3,31.71,South,180,4.0,10.0,33,0.00,,,0.00,meteohub,2013-03-19 16:02:00,
2013-03-19 10:07:00,32.2,6.3,31.71,South,180,4.0,8.0,33,0.00,,,0.00,meteohub,2013-03-19 16:07:00,
2013-03-19 10:12:00,33.1,5.0,31.71,NW,315,5.0,8.0,30,0.00,,,0.00,meteohub,2013-03-19 16:12:00,
2013-03-19 10:17:00,33.8,4.1,31.70,West,270,6.0,8.0,28,0.00,,,0.00,meteohub,2013-03-19 16:17:00,
2013-03-19 10:22:00,34.0,3.6,31.71,South,180,4.0,8.0,27,0.00,,,0.00,meteohub,2013-03-19 16:22:00,
2013-03-19 10:27:00,34.5,3.9,31.71,West,270,4.0,8.0,27,0.00,,,0.00,meteohub,2013-03-19 16:27:00,
2013-03-19 10:32:00,34.7,2.5,31.71,NNW,338,8.0,11.0,25,0.00,,,0.00,meteohub,2013-03-19 16:32:00,
2013-03-19 10:37:00,34.7,1.6,31.71,SW,225,3.0,11.0,24,0.00,,,0.00,meteohub,2013-03-19 16:37:00,
2013-03-19 10:43:00,34.7,0.7,31.71,SE,135,7.0,12.0,23,0.00,,,0.00,meteohub,2013-03-19 16:43:00,
2013-03-19 10:49:00,34.9,0.9,31.71,NNW,338,5.0,12.0,23,0.00,,,0.00,meteohub,2013-03-19 16:49:00,
2013-03-19 10:54:00,35.6,0.5,31.70,South,180,3.0,12.0,22,0.00,,,0.00,meteohub,2013-03-19 16:54:00,
2013-03-19 10:59:00,35.8,0.7,31.71,WSW,248,8.0,8.0,22,0.00,,,0.00,meteohub,2013-03-19 16:59:00,
2013-03-19 11:05:00,35.4,1.2,31.71,NE,45,4.0,8.0,23,0.00,,,0.00,meteohub,2013-03-19 17:05:00,
2013-03-19 11:10:00,35.2,1.0,31.71,West,270,6.0,8.0,23,0.00,,,0.00,meteohub,2013-03-19 17:10:00,
2013-03-19 11:15:00,35.4,1.2,31.71,West,270,3.0,8.0,23,0.00,,,0.00,meteohub,2013-03-19 17:15:00,
2013-03-19 11:21:00,35.4,1.2,31.71,West,270,8.0,8.0,23,0.00,,,0.00,meteohub,2013-03-19 17:21:00,
2013-03-19 11:27:00,35.4,0.3,31.71,SW,225,2.0,8.0,22,0.00,,,0.00,meteohub,2013-03-19 17:27:00,
2013-03-19 11:32:00,35.4,0.3,31.71,NW,315,8.0,8.0,22,0.00,,,0.00,meteohub,2013-03-19 17:32:00,
2013-03-19 11:37:00,35.8,-0.4,31.71,SW,225,8.0,12.0,21,0.00,,,0.00,meteohub,2013-03-19 17:37:00,
2013-03-19 11:42:00,35.8,-0.4,31.71,NE,45,4.0,12.0,21,0.00,,,0.00,meteohub,2013-03-19 17:42:00,
2013-03-19 11:47:00,36.3,0.1,31.71,West,270,4.0,12.0,21,0.00,,,0.00,meteohub,2013-03-19 17:47:00,
2013-03-19 11:52:00,37.0,0.7,31.71,NW,315,5.0,8.0,21,0.00,,,0.00,meteohub,2013-03-19 17:52:00,
2013-03-19 11:57:00,37.8,5.0,31.71,West,270,8.0,11.0,25,0.00,,,0.00,meteohub,2013-03-19 17:57:00,
2013-03-19 12:03:00,38.1,5.4,31.70,SW,225,8.0,11.0,25,0.00,,,0.00,meteohub,2013-03-19 18:03:00,
2013-03-19 12:09:00,37.4,4.8,31.71,NW,315,9.0,11.0,25,0.00,,,0.00,meteohub,2013-03-19 18:09:00,
2013-03-19 12:14:00,37.0,0.7,31.71,West,270,7.0,10.0,21,0.00,,,0.00,meteohub,2013-03-19 18:14:00,
2013-03-19 12:19:00,37.0,0.7,31.71,West,270,10.0,10.0,21,0.00,,,0.00,meteohub,2013-03-19 18:19:00,
2013-03-19 12:24:00,37.6,5.0,31.70,NW,315,8.0,12.0,25,0.00,,,0.00,meteohub,2013-03-19 18:24:00,
2013-03-19 12:30:00,38.1,5.4,31.71,West,270,6.0,12.0,25,0.00,,,0.00,meteohub,2013-03-19 18:30:00,
2013-03-19 12:36:00,38.3,5.5,31.71,West,270,10.0,11.0,25,0.00,,,0.00,meteohub,2013-03-19 18:36:00,
2013-03-19 12:41:00,37.6,5.0,31.71,West,270,9.0,11.0,25,0.00,,,0.00,meteohub,2013-03-19 18:41:00,
2013-03-19 12:47:00,37.9,5.2,31.71,WSW,248,10.0,13.0,25,0.00,,,0.00,meteohub,2013-03-19 18:47:00,
2013-03-19 12:52:00,37.9,5.2,31.71,NW,315,10.0,13.0,25,0.00,,,0.00,meteohub,2013-03-19 18:52:00,
2013-03-19 12:57:00,38.5,5.7,31.71,West,270,8.0,13.0,25,0.00,,,0.00,meteohub,2013-03-19 18:57:00,
2013-03-19 13:02:00,39.2,5.4,31.71,North,0,10.0,11.0,24,0.00,,,0.00,meteohub,2013-03-19 19:02:00,
2013-03-19 13:08:00,39.4,5.5,31.71,East,90,3.0,11.0,24,0.00,,,0.00,meteohub,2013-03-19 19:08:00,
2013-03-19 13:13:00,39.7,5.9,31.71,NW,315,6.0,11.0,24,0.00,,,0.00,meteohub,2013-03-19 19:13:00,
2013-03-19 13:19:00,40.1,6.3,31.71,East,90,6.0,11.0,24,0.00,,,0.00,meteohub,2013-03-19 19:19:00,
2013-03-19 13:24:00,39.9,6.1,31.71,SW,225,5.0,11.0,24,0.00,,,0.00,meteohub,2013-03-19 19:24:00,
2013-03-19 13:29:00,39.7,5.9,31.71,NW,315,13.0,13.0,24,0.00,,,0.00,meteohub,2013-03-19 19:29:00,
2013-03-19 13:35:00,39.6,5.7,31.71,North,0,8.0,16.0,24,0.00,,,0.00,meteohub,2013-03-19 19:35:00,
2013-03-19 13:40:00,39.6,5.7,31.71,NNW,338,9.0,16.0,24,0.00,,,0.00,meteohub,2013-03-19 19:40:00,
2013-03-19 13:46:00,39.7,5.9,31.71,SE,135,8.0,11.0,24,0.00,,,0.00,meteohub,2013-03-19 19:46:00,
2013-03-19 13:51:00,39.2,5.4,31.71,West,270,10.0,11.0,24,0.00,,,0.00,meteohub,2013-03-19 19:51:00,
2013-03-19 13:57:00,39.2,5.4,31.71,North,0,8.0,13.0,24,0.00,,,0.00,meteohub,2013-03-19 19:57:00,
2013-03-19 14:02:00,39.2,5.4,31.71,West,270,3.0,13.0,24,0.00,,,0.00,meteohub,2013-03-19 20:02:00,
2013-03-19 14:07:00,39.2,5.4,31.71,West,270,3.0,13.0,24,0.00,,,0.00,meteohub,2013-03-19 20:07:00,
2013-03-19 14:13:00,39.9,6.1,31.71,SW,225,8.0,11.0,24,0.00,,,0.00,meteohub,2013-03-19 20:13:00,
2013-03-19 14:19:00,39.9,6.1,31.71,West,270,4.0,9.0,24,0.00,,,0.00,meteohub,2013-03-19 20:19:00,
2013-03-19 14:24:00,39.6,5.7,31.71,NW,315,8.0,11.0,24,0.00,,,0.00,meteohub,2013-03-19 20:24:00,
2013-03-19 14:29:00,38.7,5.9,31.71,NW,315,11.0,11.0,25,0.00,,,0.00,meteohub,2013-03-19 20:29:00,
2013-03-19 14:35:00,38.1,5.4,31.71,NW,315,8.0,11.0,25,0.00,,,0.00,meteohub,2013-03-19 20:35:00,
2013-03-19 14:40:00,37.9,5.2,31.71,NW,315,13.0,13.0,25,0.00,,,0.00,meteohub,2013-03-19 20:40:00,
2013-03-19 14:46:00,38.1,5.4,31.71,North,0,8.0,13.0,25,0.00,,,0.00,meteohub,2013-03-19 20:46:00,
2013-03-19 14:51:00,37.8,5.0,31.71,NW,315,9.0,14.0,25,0.00,,,0.00,meteohub,2013-03-19 20:51:00,
2013-03-19 14:57:00,38.1,5.4,31.71,SW,225,4.0,14.0,25,0.00,,,0.00,meteohub,2013-03-19 20:57:00,
2013-03-19 15:02:00,38.8,6.1,31.71,SW,225,5.0,14.0,25,0.00,,,0.00,meteohub,2013-03-19 21:02:00,
2013-03-19 15:08:00,39.0,6.1,31.72,NE,45,6.0,12.0,25,0.00,,,0.00,meteohub,2013-03-19 21:08:00,
2013-03-19 15:14:00,39.0,6.1,31.71,SW,225,6.0,12.0,25,0.00,,,0.00,meteohub,2013-03-19 21:14:00,
2013-03-19 15:19:00,39.0,6.1,31.71,SSW,203,5.0,12.0,25,0.00,,,0.00,meteohub,2013-03-19 21:19:00,
2013-03-19 15:25:00,39.2,5.4,31.71,WNW,293,7.0,12.0,24,0.00,,,0.00,meteohub,2013-03-19 21:25:00,
2013-03-19 15:30:00,38.5,5.7,31.71,NW,315,3.0,14.0,25,0.00,,,0.00,meteohub,2013-03-19 21:30:00,
2013-03-19 15:36:00,38.5,5.7,31.71,NW,315,10.0,14.0,25,0.00,,,0.00,meteohub,2013-03-19 21:36:00,
2013-03-19 15:41:00,38.1,5.4,31.71,West,270,5.0,14.0,25,0.00,,,0.00,meteohub,2013-03-19 21:41:00,
2013-03-19 15:47:00,38.3,5.5,31.72,West,270,6.0,11.0,25,0.00,,,0.00,meteohub,2013-03-19 21:47:00,
2013-03-19 15:52:00,38.3,5.5,31.72,West,270,7.0,11.0,25,0.00,,,0.00,meteohub,2013-03-19 21:52:00,
2013-03-19 15:57:00,38.3,5.5,31.72,SW,225,4.0,8.0,25,0.00,,,0.00,meteohub,2013-03-19 21:57:00,
2013-03-19 16:02:00,38.3,5.5,31.72,SW,225,8.0,11.0,25,0.00,,,0.00,meteohub,2013-03-19 22:02:00,
2013-03-19 16:08:00,39.4,5.5,31.72,SW,225,8.0,11.0,24,0.00,,,0.00,meteohub,2013-03-19 22:08:00,
2013-03-19 16:14:00,39.4,5.5,31.73,SW,225,8.0,11.0,24,0.00,,,0.00,meteohub,2013-03-19 22:14:00,
2013-03-19 16:19:00,39.4,5.5,31.73,West,270,7.0,8.0,24,0.00,,,0.00,meteohub,2013-03-19 22:19:00,
2013-03-19 16:24:00,39.2,5.4,31.72,NW,315,6.0,8.0,24,0.00,,,0.00,meteohub,2013-03-19 22:24:00,
2013-03-19 16:30:00,38.7,5.9,31.73,West,270,8.0,8.0,25,0.00,,,0.00,meteohub,2013-03-19 22:30:00,
2013-03-19 16:35:00,38.5,5.7,31.73,West,270,5.0,10.0,25,0.00,,,0.00,meteohub,2013-03-19 22:35:00,
2013-03-19 16:40:00,38.5,5.7,31.73,NW,315,7.0,12.0,25,0.00,,,0.00,meteohub,2013-03-19 22:40:00,
2013-03-19 16:45:00,38.1,5.4,31.73,South,180,4.0,12.0,25,0.00,,,0.00,meteohub,2013-03-19 22:45:00,
2013-03-19 16:51:00,37.9,5.2,31.73,WNW,293,7.0,13.0,25,0.00,,,0.00,meteohub,2013-03-19 22:51:00,
2013-03-19 16:56:00,37.9,5.2,31.73,SW,225,4.0,13.0,25,0.00,,,0.00,meteohub,2013-03-19 22:56:00,
2013-03-19 17:01:00,38.1,5.4,31.73,SSW,203,4.0,13.0,25,0.00,,,0.00,meteohub,2013-03-19 23:01:00,
2013-03-19 17:07:00,37.6,5.0,31.73,NW,315,8.0,11.0,25,0.00,,,0.00,meteohub,2013-03-19 23:07:00,
2013-03-19 17:12:00,36.9,0.5,31.73,West,270,8.0,11.0,21,0.00,,,0.00,meteohub,2013-03-19 23:12:00,
2013-03-19 17:17:00,36.5,0.3,31.74,North,0,5.0,11.0,21,0.00,,,0.00,meteohub,2013-03-19 23:17:00,
2013-03-19 17:22:00,36.5,0.3,31.73,East,90,6.0,8.0,21,0.00,,,0.00,meteohub,2013-03-19 23:22:00,
2013-03-19 17:27:00,36.5,0.3,31.74,West,270,6.0,8.0,21,0.00,,,0.00,meteohub,2013-03-19 23:27:00,
2013-03-19 17:32:00,36.1,0.0,31.74,NW,315,6.0,8.0,21,0.00,,,0.00,meteohub,2013-03-19 23:32:00,
2013-03-19 17:37:00,35.2,0.1,31.74,West,270,8.0,9.0,22,0.00,,,0.00,meteohub,2013-03-19 23:37:00,
2013-03-19 17:43:00,34.3,-0.6,31.74,NW,315,8.0,9.0,22,0.00,,,0.00,meteohub,2013-03-19 23:43:00,
2013-03-19 17:49:00,33.3,-0.6,31.74,NW,315,7.0,10.0,23,0.00,,,0.00,meteohub,2013-03-19 23:49:00,
2013-03-19 17:55:00,32.9,-0.9,31.74,North,0,6.0,11.0,23,0.00,,,0.00,meteohub,2013-03-19 23:55:00,
2013-03-19 18:00:00,32.5,-1.1,31.75,West,270,6.0,11.0,23,0.00,,,0.00,meteohub,2013-03-20 00:00:00,
2013-03-19 18:05:00,32.5,-1.1,31.75,West,270,6.0,11.0,23,0.00,,,0.00,meteohub,2013-03-20 00:05:00,
2013-03-19 18:11:00,32.0,-1.7,31.75,SW,225,6.0,11.0,23,0.00,,,0.00,meteohub,2013-03-20 00:11:00,
2013-03-19 18:17:00,31.6,-1.1,31.75,NW,315,3.0,7.0,24,0.00,,,0.00,meteohub,2013-03-20 00:17:00,
2013-03-19 18:22:00,31.5,-1.1,31.75,West,270,3.0,8.0,24,0.00,,,0.00,meteohub,2013-03-20 00:22:00,
2013-03-19 18:27:00,31.1,-1.5,31.75,NW,315,10.0,10.0,24,0.00,,,0.00,meteohub,2013-03-20 00:27:00,
2013-03-19 18:32:00,30.9,-1.7,31.76,SW,225,4.0,10.0,24,0.00,,,0.00,meteohub,2013-03-20 00:32:00,
2013-03-19 18:37:00,30.6,-2.0,31.76,NW,315,4.0,10.0,24,0.00,,,0.00,meteohub,2013-03-20 00:37:00,
2013-03-19 18:43:00,30.0,-1.5,31.76,SW,225,3.0,10.0,25,0.00,,,0.00,meteohub,2013-03-20 00:43:00,
2013-03-19 18:48:00,29.5,-2.0,31.76,West,270,4.0,6.0,25,0.00,,,0.00,meteohub,2013-03-20 00:48:00,
2013-03-19 18:54:00,29.1,-2.4,31.76,SSW,203,2.0,4.0,25,0.00,,,0.00,meteohub,2013-03-20 00:54:00,
2013-03-19 18:59:00,28.6,-2.7,31.77,SW,225,4.0,4.0,25,0.00,,,0.00,meteohub,2013-03-20 00:59:00,
2013-03-19 19:05:00,28.0,-6.9,31.77,West,270,2.0,5.0,21,0.00,,,0.00,meteohub,2013-03-20 01:05:00,
2013-03-19 19:11:00,27.9,-7.1,31.77,West,270,4.0,5.0,21,0.00,,,0.00,meteohub,2013-03-20 01:11:00,
2013-03-19 19:17:00,27.7,-7.2,31.77,West,270,3.0,6.0,21,0.00,,,0.00,meteohub,2013-03-20 01:17:00,
2013-03-19 19:22:00,27.5,-7.4,31.77,West,270,2.0,6.0,21,0.00,,,0.00,meteohub,2013-03-20 01:22:00,
2013-03-19 19:27:00,27.1,-7.6,31.77,NW,315,2.0,6.0,21,0.00,,,0.00,meteohub,2013-03-20 01:27:00,
2013-03-19 19:33:00,27.0,-7.8,31.77,SW,225,4.0,4.0,21,0.00,,,0.00,meteohub,2013-03-20 01:33:00,
2013-03-19 19:38:00,26.8,-8.0,31.78,West,270,0.0,4.0,21,0.00,,,0.00,meteohub,2013-03-20 01:38:00,
2013-03-19 19:43:00,26.6,-8.1,31.78,SW,225,0.0,4.0,21,0.00,,,0.00,meteohub,2013-03-20 01:43:00,
2013-03-19 19:49:00,26.4,-7.2,31.78,SE,135,0.0,4.0,22,0.00,,,0.00,meteohub,2013-03-20 01:49:00,
2013-03-19 19:55:00,26.1,-7.6,31.78,SW,225,0.0,4.0,22,0.00,,,0.00,meteohub,2013-03-20 01:55:00,
2013-03-19 20:01:00,25.9,-7.8,31.78,SW,225,0.0,2.0,22,0.00,,,0.00,meteohub,2013-03-20 02:01:00,
2013-03-19 20:06:00,25.9,-7.8,31.78,SW,225,0.0,2.0,22,0.00,,,0.00,meteohub,2013-03-20 02:06:00,
2013-03-19 20:12:00,25.5,-8.1,31.79,SW,225,0.0,2.0,22,0.00,,,0.00,meteohub,2013-03-20 02:12:00,
2013-03-19 20:17:00,25.2,-8.3,31.79,NW,315,0.0,0.0,22,0.00,,,0.00,meteohub,2013-03-20 02:17:00,
2013-03-19 20:22:00,24.8,-8.7,31.79,East,90,0.0,0.0,22,0.00,,,0.00,meteohub,2013-03-20 02:22:00,
2013-03-19 20:27:00,24.3,-8.1,31.79,SW,225,0.0,0.0,23,0.00,,,0.00,meteohub,2013-03-20 02:27:00,
2013-03-19 20:32:00,23.9,-8.5,31.80,SW,225,0.0,0.0,23,0.00,,,0.00,meteohub,2013-03-20 02:32:00,
2013-03-19 20:38:00,23.5,-8.9,31.80,West,270,0.0,0.0,23,0.00,,,0.00,meteohub,2013-03-20 02:38:00,
2013-03-19 20:43:00,23.0,-9.2,31.80,SE,135,0.0,2.0,23,0.00,,,0.00,meteohub,2013-03-20 02:43:00,
2013-03-19 20:48:00,22.6,-8.7,31.80,SE,135,0.0,2.0,24,0.00,,,0.00,meteohub,2013-03-20 02:48:00,
2013-03-19 20:54:00,22.1,-9.2,31.80,NW,315,0.0,2.0,24,0.00,,,0.00,meteohub,2013-03-20 02:54:00,
2013-03-19 21:00:00,21.6,-8.9,31.80,South,180,0.0,0.0,25,0.00,,,0.00,meteohub,2013-03-20 03:00:00,
2013-03-19 21:06:00,21.0,-8.5,31.80,West,270,0.0,0.0,26,0.00,,,0.00,meteohub,2013-03-20 03:06:00,
2013-03-19 21:11:00,20.7,-8.0,31.80,SE,135,0.0,0.0,27,0.00,,,0.00,meteohub,2013-03-20 03:11:00,
2013-03-19 21:17:00,20.3,-8.3,31.80,NW,315,0.0,0.0,27,0.00,,,0.00,meteohub,2013-03-20 03:17:00,
2013-03-19 21:22:00,19.8,-8.1,31.81,South,180,0.0,0.0,28,0.00,,,0.00,meteohub,2013-03-20 03:22:00,
2013-03-19 21:28:00,19.4,-8.3,31.81,West,270,0.0,1.0,28,0.00,,,0.00,meteohub,2013-03-20 03:28:00,
2013-03-19 21:33:00,19.0,-11.9,31.81,NW,315,0.0,1.0,24,0.00,,,0.00,meteohub,2013-03-20 03:33:00,
2013-03-19 21:39:00,19.0,-11.9,31.81,North,0,0.0,0.0,24,0.00,,,0.00,meteohub,2013-03-20 03:39:00,
2013-03-19 21:45:00,18.9,-11.9,31.81,SW,225,0.0,0.0,24,0.00,,,0.00,meteohub,2013-03-20 03:45:00,
2013-03-19 21:50:00,18.3,-10.8,31.81,SW,225,0.0,0.0,26,0.00,,,0.00,meteohub,2013-03-20 03:50:00,
2013-03-19 21:55:00,18.0,-11.2,31.81,SW,225,0.0,0.0,26,0.00,,,0.00,meteohub,2013-03-20 03:55:00,
2013-03-19 22:00:00,17.6,-10.7,31.82,West,270,0.0,0.0,27,0.00,,,0.00,meteohub,2013-03-20 04:00:00,
2013-03-19 22:01:00,17.6,-10.7,31.82,West,270,0.0,0.0,27,0.00,,,0.00,meteohub,2013-03-20 04:01:00,
2013-03-19 22:06:00,17.6,-10.7,31.82,West,270,0.0,0.0,27,0.00,,,0.00,meteohub,2013-03-20 04:06:00,
2013-03-19 22:09:00,17.1,-10.5,31.82,NW,315,0.0,0.0,28,0.00,,,0.00,meteohub,2013-03-20 04:09:00,
2013-03-19 22:11:00,17.1,-11.2,31.82,NW,315,0.0,0.0,27,0.00,,,0.00,meteohub,2013-03-20 04:11:00,
2013-03-19 22:16:00,17.1,-10.5,31.82,SW,225,0.0,0.0,28,0.00,,,0.00,meteohub,2013-03-20 04:16:00,
2013-03-19 22:22:00,16.5,-10.1,31.82,South,180,0.0,0.0,29,0.00,,,0.00,meteohub,2013-03-20 04:22:00,
2013-03-19 22:27:00,16.2,-10.5,31.82,NW,315,0.0,0.0,29,0.00,,,0.00,meteohub,2013-03-20 04:27:00,
2013-03-19 22:32:00,16.0,-9.9,31.83,SW,225,0.0,0.0,30,0.00,,,0.00,meteohub,2013-03-20 04:32:00,
2013-03-19 22:37:00,15.6,-8.3,31.83,SW,225,0.0,0.0,33,0.00,,,0.00,meteohub,2013-03-20 04:37:00,
2013-03-19 22:42:00,15.3,-8.1,31.82,West,270,0.0,0.0,34,0.00,,,0.00,meteohub,2013-03-20 04:42:00,
2013-03-19 22:48:00,15.1,-8.3,31.83,SW,225,0.0,0.0,34,0.00,,,0.00,meteohub,2013-03-20 04:48:00,
2013-03-19 22:53:00,14.7,-8.5,31.82,SW,225,0.0,0.0,34,0.00,,,0.00,meteohub,2013-03-20 04:53:00,
2013-03-19 22:59:00,14.4,-8.3,31.82,SW,225,0.0,0.0,35,0.00,,,0.00,meteohub,2013-03-20 04:59:00,
2013-03-19 23:04:00,14.2,-8.5,31.82,West,270,0.0,0.0,35,0.00,,,0.00,meteohub,2013-03-20 05:04:00,
2013-03-19 23:09:00,14.2,-8.0,31.82,South,180,0.0,0.0,36,0.00,,,0.00,meteohub,2013-03-20 05:09:00,
2013-03-19 23:14:00,14.0,-7.4,31.82,SW,225,0.0,0.0,37,0.00,,,0.00,meteohub,2013-03-20 05:14:00,
2013-03-19 23:19:00,13.8,-7.1,31.83,South,180,0.0,0.0,38,0.00,,,0.00,meteohub,2013-03-20 05:19:00,
2013-03-19 23:25:00,13.6,-6.7,31.83,South,180,0.0,0.0,39,0.00,,,0.00,meteohub,2013-03-20 05:25:00,
2013-03-19 23:30:00,13.5,-7.4,31.83,South,180,0.0,0.0,38,0.00,,,0.00,meteohub,2013-03-20 05:30:00,
2013-03-19 23:35:00,13.3,-8.1,31.83,SW,225,0.0,0.0,37,0.00,,,0.00,meteohub,2013-03-20 05:35:00,
2013-03-19 23:41:00,13.1,-8.3,31.82,SW,225,0.0,0.0,37,0.00,,,0.00,meteohub,2013-03-20 05:41:00,
2013-03-19 23:47:00,12.9,-8.0,31.83,West,270,0.0,0.0,38,0.00,,,0.00,meteohub,2013-03-20 05:47:00,
2013-03-19 23:52:00,12.7,-7.1,31.83,SW,225,0.0,0.0,40,0.00,,,0.00,meteohub,2013-03-20 05:52:00,
2013-03-19 23:57:00,12.4,-7.4,31.83,West,270,0.0,0.0,40,0.00,,,0.00,meteohub,2013-03-20 05:57:00,